Terminal Aerodrome Forecast
Issued by NWS Sterling, VA

Current Version | Previous Version | Graphics & Text | Print | Product List | Glossary On
Versions: 1 2 3 4 5 6 7 8 9 10 11 12 13 14 15 16 17 18 19 20 21 22 23 24 25 26 27 28 29
000
FTUS41 KLWX 232107 AAA
TAFDCA
TAF AMD
KDCA 232107Z 2321/2418 09008KT P6SM -SHRA OVC025
     FM240300 05006KT P6SM -RA OVC025
     FM240600 02005KT P6SM OVC030
     FM241300 04004KT P6SM OVC060
     FM241500 10005KT P6SM OVC050=

USA.gov is the U.S. government's official web portal to all federal, state and local government web resources and services.